ANA684 RJOA-RJTT

Flight info

Callsign ANA684
Flight time N/A
Altitude 35000
Route BOLIG IKUNO MIDER Y71 XAC
Aircraft A321/M-SDE3FGHIRWYZ/LB1

Departure

Time 2026-04-30 14:22
Airport Hiroshima Airport (RJOA)

Arrival

Time N/A
Airport Tokyo Haneda International Airport (RJTT)
Time Latitude Longitude Altitude Speed Heading
2026-04-30 14:11 34.43917 132.91556 1107 ft 0 kts
2026-04-30 14:15 34.43916 132.91556 1106 ft 1 kts
2026-04-30 14:15 34.43891 132.91556 1079 ft 4 kts
2026-04-30 14:16 34.43864 132.91556 1079 ft 4 kts
2026-04-30 14:16 34.43837 132.91556 1079 ft 4 kts
2026-04-30 14:16 34.43811 132.91555 1079 ft 4 kts 351°
2026-04-30 14:16 34.43788 132.91567 1079 ft 4 kts 316°
2026-04-30 14:17 34.43773 132.91585 1079 ft 1 kts 315°
2026-04-30 14:17 34.43771 132.91588 1079 ft 0 kts 315°
2026-04-30 14:19 34.43768 132.91546 1079 ft 11 kts 262°
2026-04-30 14:19 34.43768 132.91426 1079 ft 16 kts 270°
2026-04-30 14:19 34.43769 132.91282 1080 ft 17 kts 270°
2026-04-30 14:20 34.43767 132.91137 1080 ft 18 kts 269°
2026-04-30 14:20 34.43766 132.90983 1080 ft 18 kts 270°
2026-04-30 14:20 34.43620 132.90873 1081 ft 13 kts 156°
2026-04-30 14:21 34.43601 132.90936 1081 ft 0 kts 89°
2026-04-30 14:21 34.43601 132.90937 1081 ft 1 kts 89°
2026-04-30 14:22 34.43605 132.91144 1079 ft 66 kts 88°
2026-04-30 14:22 34.43612 132.93394 1444 ft 170 kts 89°
2026-04-30 14:22 34.43599 132.94834 2414 ft 170 kts 91°
2026-04-30 14:23 34.43588 132.97846 3641 ft 193 kts 95°
2026-04-30 14:23 34.44658 133.01048 3891 ft 248 kts 42°
2026-04-30 14:24 34.48044 133.03168 4762 ft 289 kts 26°
2026-04-30 14:24 34.49895 133.04120 5424 ft 296 kts 26°
2026-04-30 14:25 34.53726 133.06223 6834 ft 307 kts 27°
2026-04-30 14:25 34.57591 133.08563 8308 ft 314 kts 27°
2026-04-30 14:26 34.61506 133.11042 9799 ft 320 kts 26°
2026-04-30 14:26 34.63499 133.12316 10300 ft 331 kts 26°
2026-04-30 14:26 34.67861 133.15083 10720 ft 371 kts 26°
2026-04-30 14:27 34.70177 133.16551 11282 ft 377 kts 26°
2026-04-30 14:27 34.72518 133.18037 11897 ft 382 kts 26°
2026-04-30 14:27 34.74856 133.19523 12495 ft 387 kts 26°
2026-04-30 14:28 34.79690 133.22596 13713 ft 396 kts 26°
2026-04-30 14:28 34.82145 133.24157 14257 ft 399 kts 25°
2026-04-30 14:28 34.84545 133.25896 14796 ft 405 kts 36°
2026-04-30 14:28 34.86639 133.28208 15340 ft 409 kts 49°
2026-04-30 14:29 34.89476 133.34194 16399 ft 411 kts 75°
2026-04-30 14:29 34.90683 133.39836 17288 ft 416 kts 79°
2026-04-30 14:30 34.93087 133.51396 18897 ft 429 kts 79°
2026-04-30 14:31 34.94565 133.58526 19700 ft 439 kts 79°
2026-04-30 14:31 34.96066 133.65822 20512 ft 447 kts 79°
2026-04-30 14:31 34.96824 133.69518 20913 ft 451 kts 79°
2026-04-30 14:32 34.98356 133.76976 21695 ft 459 kts 79°
2026-04-30 14:32 34.99136 133.80778 22091 ft 463 kts 79°
2026-04-30 14:32 34.99921 133.84608 22481 ft 467 kts 79°
2026-04-30 14:33 35.00714 133.88466 22861 ft 471 kts 79°
2026-04-30 14:33 35.02325 133.96315 23559 ft 480 kts 80°
2026-04-30 14:33 35.03131 134.00277 23888 ft 483 kts 80°
2026-04-30 14:34 35.03942 134.04267 24196 ft 486 kts 80°
2026-04-30 14:34 35.04756 134.08293 24518 ft 488 kts 80°
2026-04-30 14:34 35.05569 134.12326 24855 ft 491 kts 80°
2026-04-30 14:34 35.06110 134.15010 25069 ft 493 kts 80°
2026-04-30 14:35 35.07760 134.23187 25729 ft 498 kts 80°
2026-04-30 14:35 35.08584 134.27308 26044 ft 500 kts 81°
2026-04-30 14:35 35.09681 134.32812 26448 ft 504 kts 81°
2026-04-30 14:36 35.10512 134.36979 26743 ft 506 kts 81°
2026-04-30 14:36 35.11063 134.39746 26951 ft 508 kts 81°
2026-04-30 14:36 35.11899 134.43946 27272 ft 510 kts 80°
2026-04-30 14:36 35.12741 134.48176 27577 ft 512 kts 81°
2026-04-30 14:37 35.13584 134.52417 27872 ft 514 kts 81°
2026-04-30 14:37 35.14428 134.56675 28180 ft 517 kts 81°
2026-04-30 14:37 35.15274 134.60957 28481 ft 519 kts 81°
2026-04-30 14:37 35.16115 134.65211 28751 ft 521 kts 81°
2026-04-30 14:38 35.16968 134.69538 29034 ft 523 kts 81°
2026-04-30 14:38 35.17819 134.73870 29301 ft 525 kts 81°
2026-04-30 14:38 35.18675 134.78229 29540 ft 527 kts 82°
2026-04-30 14:38 35.19290 134.82631 29802 ft 523 kts 90°
2026-04-30 14:39 35.19409 134.87047 30044 ft 516 kts 99°
2026-04-30 14:39 35.19045 134.91379 30251 ft 510 kts 108°
2026-04-30 14:39 35.18288 134.95599 30437 ft 508 kts 111°
2026-04-30 14:40 35.16685 135.04032 30878 ft 510 kts 111°
2026-04-30 14:40 35.15892 135.08266 31139 ft 511 kts 111°
2026-04-30 14:40 35.15102 135.12509 31318 ft 513 kts 111°
2026-04-30 14:40 35.14308 135.16761 31593 ft 513 kts 111°
2026-04-30 14:41 35.13520 135.20969 31850 ft 514 kts 111°
2026-04-30 14:41 35.12715 135.25240 32087 ft 516 kts 112°
2026-04-30 14:41 35.11905 135.29513 32347 ft 517 kts 112°
2026-04-30 14:41 35.11089 135.33792 32613 ft 518 kts 112°
2026-04-30 14:42 35.10268 135.38093 32859 ft 519 kts 112°
2026-04-30 14:42 35.09444 135.42413 33102 ft 520 kts 112°
2026-04-30 14:42 35.08631 135.46676 33353 ft 521 kts 112°
2026-04-30 14:42 35.07806 135.50999 33609 ft 522 kts 112°
2026-04-30 14:43 35.06981 135.55315 33855 ft 523 kts 112°
2026-04-30 14:43 35.06145 135.59663 34097 ft 524 kts 112°
2026-04-30 14:43 35.05310 135.63992 34377 ft 523 kts 112°
2026-04-30 14:43 35.04475 135.68306 34645 ft 522 kts 112°
2026-04-30 14:44 35.03638 135.72618 34881 ft 522 kts 112°
2026-04-30 14:44 35.02802 135.76925 34950 ft 519 kts 113°
2026-04-30 14:44 35.01173 135.85465 34963 ft 515 kts 111°
2026-04-30 14:45 34.99753 135.94053 34964 ft 517 kts 110°
2026-04-30 14:45 34.98444 136.02639 34971 ft 517 kts 109°
2026-04-30 14:46 34.97089 136.11241 34974 ft 516 kts 110°
2026-04-30 14:46 34.95675 136.19814 34985 ft 516 kts 110°
2026-04-30 14:47 34.94242 136.28384 34991 ft 515 kts 110°
2026-04-30 14:47 34.92820 136.36956 34998 ft 515 kts 110°
2026-04-30 14:48 34.91413 136.45460 34999 ft 515 kts 110°
2026-04-30 14:48 34.90001 136.53994 34994 ft 514 kts 110°
2026-04-30 14:49 34.88567 136.62531 34988 ft 513 kts 110°
2026-04-30 14:49 34.87120 136.71062 34978 ft 513 kts 110°
2026-04-30 14:50 34.84959 136.83830 34977 ft 513 kts 110°
2026-04-30 14:51 34.82812 136.96554 34975 ft 515 kts 108°
2026-04-30 14:52 34.81311 137.09610 34996 ft 523 kts 103°
2026-04-30 14:52 34.80456 137.18534 35003 ft 536 kts 104°
2026-04-30 14:52 34.79985 137.23028 35014 ft 538 kts 104°
2026-04-30 14:53 34.78442 137.36519 35011 ft 538 kts 105°
2026-04-30 14:54 34.76344 137.54529 35020 ft 537 kts 104°
2026-04-30 14:55 34.74800 137.67963 35039 ft 536 kts 104°
2026-04-30 14:56 34.73045 137.85989 35074 ft 537 kts 102°
2026-04-30 14:57 34.71799 137.99510 35093 ft 536 kts 103°
2026-04-30 14:58 34.71492 138.17735 35094 ft 542 kts 95°
2026-04-30 14:58 34.71546 138.31489 35083 ft 542 kts 95°
2026-04-30 14:59 34.71567 138.40680 34893 ft 543 kts 95°
2026-04-30 15:00 34.71578 138.54542 32659 ft 546 kts 94°
2026-04-30 15:00 34.71576 138.63777 31029 ft 545 kts 95°
2026-04-30 15:01 34.71561 138.72975 28566 ft 543 kts 94°
2026-04-30 15:01 34.71555 138.76011 27601 ft 542 kts 94°
2026-04-30 15:01 34.71547 138.86662 24161 ft 535 kts 93°
2026-04-30 15:02 34.71540 138.91118 22738 ft 519 kts 93°
2026-04-30 15:02 34.71529 138.95406 21970 ft 491 kts 93°
2026-04-30 15:03 34.71471 139.07321 19853 ft 466 kts 93°
2026-04-30 15:03 34.71405 139.15211 18474 ft 463 kts 92°
2026-04-30 15:04 34.71353 139.22987 17100 ft 454 kts 92°
2026-04-30 15:04 34.71282 139.34320 15246 ft 439 kts 92°
2026-04-30 15:05 34.72857 139.44769 14434 ft 403 kts 66°
2026-04-30 15:06 34.75432 139.50567 14210 ft 375 kts 61°
2026-04-30 15:06 34.77883 139.55921 13981 ft 350 kts 61°
2026-04-30 15:07 34.80170 139.60922 13680 ft 321 kts 61°
2026-04-30 15:07 34.82269 139.65523 12885 ft 304 kts 62°
2026-04-30 15:08 34.84280 139.69936 12952 ft 300 kts 62°
2026-04-30 15:08 34.87315 139.76581 12116 ft 295 kts 60°
2026-04-30 15:09 34.90246 139.80017 11604 ft 295 kts 31°
2026-04-30 15:09 34.93780 139.82551 11079 ft 295 kts 32°
2026-04-30 15:10 34.97282 139.85081 10563 ft 294 kts 32°
2026-04-30 15:11 35.04286 139.90163 9520 ft 290 kts 33°
2026-04-30 15:11 35.07738 139.92670 9008 ft 287 kts 33°
2026-04-30 15:12 35.12834 139.96366 8266 ft 283 kts 33°
2026-04-30 15:13 35.16493 139.98008 7718 ft 283 kts
2026-04-30 15:14 35.24273 139.98237 6429 ft 276 kts 357°
2026-04-30 15:14 35.27093 139.97358 5942 ft 275 kts 331°
2026-04-30 15:16 35.35342 139.91535 4178 ft 274 kts 330°
2026-04-30 15:17 35.41913 139.86891 2732 ft 272 kts 331°
2026-04-30 15:18 35.49839 139.81276 977 ft 218 kts 331°
2026-04-30 15:19 35.52539 139.79363 320 ft 138 kts 330°